When you browse on this site, cookies collect data to enhance your experience and personalize the content and advertising you see.
Visit our Privacy Policy to learn more. By continuing to use the site, you agree to this use of cookies and data.
  • En España
  • Lista de países
  • Para 7 días
  • Temperatura del agua
  • El tiempo en el mapa
  • Informadores
  • user-avatar
    Iniciar sesión

    Tiempo cada hora Mansa

    Hoy, 23 Octubre, Miércoles

    Tiempo Temperatura Precipitaciones Viento Presión Humedad
    00:00 +22°C° 0 mm 1 mps 657 mmHg 80%
    01:00 +22°C° 0 mm 1 mps 657 mmHg 81%
    02:00 +21°C° 0 mm 1 mps 656 mmHg 82%
    03:00 +21°C° 0 mm 1 mps 657 mmHg 84%
    04:00 +19°C° 0 mm 0 mps 657 mmHg 85%
    05:00 +18°C° 0 mm 0 mps 657 mmHg 87%
    06:00 +21°C° 0 mm 0 mps 658 mmHg 76%
    07:00 +24°C° 0 mm 0 mps 659 mmHg 65%
    08:00 +27°C° 0 mm 0 mps 661 mmHg 54%
    09:00 +31°C° 0 mm 1 mps 661 mmHg 46%
    10:00 +34°C° 0 mm 1 mps 661 mmHg 37%
    11:00 +37°C° 0 mm 2 mps 661 mmHg 29%
    12:00 +36°C° 0 mm 1 mps 660 mmHg 28%
    13:00 +35°C° 0 mm 1 mps 659 mmHg 28%
    14:00 +35°C° 0 mm 1 mps 658 mmHg 27%
    15:00 +34°C° 0 mm 1 mps 658 mmHg 28%
    16:00 +35°C° 0 mm 2 mps 657 mmHg 28%
    17:00 +34°C° 0 mm 2 mps 657 mmHg 29%
    18:00 +31°C° 0.1 mm 2 mps 657 mmHg 39%
    19:00 +28°C° 0.1 mm 2 mps 657 mmHg 49%
    20:00 +25°C° 0.1 mm 2 mps 657 mmHg 59%
    21:00 +25°C° 0.2 mm 1 mps 657 mmHg 61%
    22:00 +24°C° 0.2 mm 1 mps 657 mmHg 64%
    23:00 +24°C° 0.2 mm 1 mps 657 mmHg 66%

    Mañana, 24 Octubre, Jueves

    Tiempo Temperatura Precipitaciones Viento Presión Humedad
    00:00 +23°C° 0 mm 1 mps 657 mmHg 68%
    01:00 +23°C° 0 mm 1 mps 657 mmHg 71%
    02:00 +20°C° 0 mm 0 mps 656 mmHg 74%
    03:00 +20°C° 0 mm 0 mps 657 mmHg 75%
    04:00 +20°C° 0 mm 0 mps 657 mmHg 75%
    05:00 +20°C° 0 mm 0 mps 657 mmHg 76%
    06:00 +22°C° 0 mm 0 mps 659 mmHg 66%
    07:00 +27°C° 0 mm 1 mps 660 mmHg 55%
    08:00 +30°C° 0 mm 1 mps 661 mmHg 44%
    09:00 +32°C° 0 mm 2 mps 661 mmHg 37%
    10:00 +35°C° 0 mm 2 mps 661 mmHg 31%
    11:00 +37°C° 0 mm 3 mps 661 mmHg 24%
    12:00 +38°C° 0 mm 3 mps 660 mmHg 22%
    13:00 +38°C° 0 mm 3 mps 659 mmHg 21%
    14:00 +38°C° 0 mm 3 mps 658 mmHg 19%
    15:00 +37°C° 0 mm 3 mps 658 mmHg 23%
    16:00 +36°C° 0 mm 2 mps 657 mmHg 26%
    17:00 +35°C° 0 mm 2 mps 657 mmHg 30%
    18:00 +32°C° 0 mm 2 mps 657 mmHg 34%
    19:00 +30°C° 0 mm 1 mps 657 mmHg 37%
    20:00 +29°C° 0 mm 1 mps 657 mmHg 41%
    21:00 +28°C° 0 mm 1 mps 658 mmHg 45%
    22:00 +28°C° 0 mm 2 mps 658 mmHg 48%
    23:00 +27°C° 0 mm 2 mps 658 mmHg 52%

    Pasado mañana, 25 Octubre, Viernes

    Tiempo Temperatura Precipitaciones Viento Presión Humedad
    00:00 +27°C° 0.1 mm 2 mps 658 mmHg 55%
    01:00 +26°C° 0.1 mm 1 mps 658 mmHg 57%
    02:00 +25°C° 0.1 mm 1 mps 658 mmHg 60%
    03:00 +24°C° 0.1 mm 1 mps 658 mmHg 63%
    04:00 +24°C° 0.1 mm 1 mps 658 mmHg 67%
    05:00 +23°C° 0.1 mm 1 mps 658 mmHg 70%
    06:00 +25°C° 0 mm 1 mps 659 mmHg 61%
    07:00 +27°C° 0 mm 2 mps 660 mmHg 51%
    08:00 +30°C° 0 mm 2 mps 661 mmHg 42%
    09:00 +32°C° 0 mm 2 mps 661 mmHg 36%
    10:00 +35°C° 0 mm 3 mps 661 mmHg 31%
    11:00 +37°C° 0 mm 3 mps 661 mmHg 25%
    12:00 +36°C° 0 mm 2 mps 660 mmHg 24%
    13:00 +36°C° 0 mm 2 mps 659 mmHg 24%
    14:00 +35°C° 0 mm 1 mps 659 mmHg 24%
    15:00 +34°C° 0 mm 1 mps 658 mmHg 25%
    16:00 +34°C° 0 mm 1 mps 658 mmHg 25%
    17:00 +34°C° 0 mm 1 mps 657 mmHg 26%
    18:00 +32°C° 0 mm 1 mps 657 mmHg 28%
    19:00 +31°C° 0 mm 1 mps 658 mmHg 31%
    20:00 +29°C° 0 mm 1 mps 658 mmHg 33%
    21:00 +28°C° 0 mm 1 mps 658 mmHg 35%
    22:00 +28°C° 0 mm 1 mps 658 mmHg 36%
    23:00 +27°C° 0 mm 1 mps 658 mmHg 38%

    26 Octubre, Sábado

    Tiempo Temperatura Precipitaciones Viento Presión Humedad
    00:00 +27°C° 0 mm 1 mps 658 mmHg 39%
    01:00 +27°C° 0 mm 1 mps 658 mmHg 40%
    02:00 +27°C° 0 mm 1 mps 658 mmHg 41%
    03:00 +26°C° 0 mm 1 mps 658 mmHg 44%
    04:00 +25°C° 0 mm 1 mps 659 mmHg 46%
    05:00 +23°C° 0 mm 0 mps 659 mmHg 48%
    06:00 +26°C° 0 mm 1 mps 659 mmHg 44%
    07:00 +28°C° 0 mm 2 mps 660 mmHg 39%
    08:00 +30°C° 0 mm 3 mps 661 mmHg 35%
    09:00 +33°C° 0 mm 3 mps 661 mmHg 30%
    10:00 +35°C° 0 mm 3 mps 661 mmHg 25%
    11:00 +38°C° 0 mm 3 mps 661 mmHg 20%
    12:00 +38°C° 0 mm 3 mps 660 mmHg 19%
    13:00 +38°C° 0 mm 3 mps 659 mmHg 17%
    14:00 +38°C° 0 mm 4 mps 658 mmHg 16%
    15:00 +38°C° 0 mm 3 mps 657 mmHg 17%
    16:00 +37°C° 0 mm 3 mps 657 mmHg 17%
    17:00 +37°C° 0 mm 2 mps 656 mmHg 17%
    18:00 +34°C° 0 mm 2 mps 656 mmHg 20%
    19:00 +31°C° 0 mm 1 mps 656 mmHg 22%
    20:00 +27°C° 0 mm 0 mps 656 mmHg 25%
    21:00 +28°C° 0 mm 1 mps 656 mmHg 27%
    22:00 +27°C° 0 mm 1 mps 657 mmHg 29%
    23:00 +26°C° 0 mm 1 mps 657 mmHg 30%

    27 Octubre, Domingo

    Tiempo Temperatura Precipitaciones Viento Presión Humedad
    00:00 +26°C° 0 mm 2 mps 657 mmHg 32%
    01:00 +25°C° 0 mm 2 mps 657 mmHg 34%
    02:00 +24°C° 0 mm 2 mps 656 mmHg 35%
    03:00 +24°C° 0 mm 2 mps 657 mmHg 37%
    04:00 +23°C° 0 mm 1 mps 657 mmHg 39%
    05:00 +23°C° 0 mm 1 mps 657 mmHg 40%
    06:00 +25°C° 0 mm 2 mps 658 mmHg 37%
    07:00 +27°C° 0 mm 2 mps 659 mmHg 34%
    08:00 +29°C° 0 mm 3 mps 660 mmHg 32%
    09:00 +33°C° 0 mm 3 mps 660 mmHg 28%
    10:00 +35°C° 0 mm 2 mps 660 mmHg 24%
    11:00 +38°C° 0 mm 2 mps 660 mmHg 21%
    12:00 +38°C° 0 mm 2 mps 659 mmHg 20%
    13:00 +38°C° 0 mm 2 mps 658 mmHg 19%
    14:00 +38°C° 0 mm 2 mps 657 mmHg 19%
    15:00 +37°C° 0 mm 2 mps 657 mmHg 18%
    16:00 +37°C° 0 mm 2 mps 656 mmHg 18%
    17:00 +36°C° 0 mm 2 mps 656 mmHg 17%
    18:00 +34°C° 0 mm 2 mps 656 mmHg 21%
    19:00 +30°C° 0 mm 1 mps 656 mmHg 24%
    20:00 +28°C° 0 mm 1 mps 655 mmHg 28%
    21:00 +27°C° 0 mm 1 mps 655 mmHg 35%
    22:00 +26°C° 0 mm 1 mps 655 mmHg 43%
    23:00 +24°C° 0 mm 1 mps 656 mmHg 50%

    28 Octubre, Lunes

    Tiempo Temperatura Precipitaciones Viento Presión Humedad
    00:00 +24°C° 0 mm 1 mps 656 mmHg 53%
    01:00 +23°C° 0 mm 1 mps 656 mmHg 56%
    02:00 +23°C° 0 mm 1 mps 655 mmHg 59%
    03:00 +22°C° 0 mm 1 mps 656 mmHg 62%
    04:00 +22°C° 0 mm 1 mps 656 mmHg 66%
    05:00 +21°C° 0 mm 1 mps 656 mmHg 69%
    06:00 +24°C° 0 mm 1 mps 657 mmHg 63%
    07:00 +26°C° 0 mm 1 mps 658 mmHg 58%
    08:00 +28°C° 0 mm 2 mps 659 mmHg 52%
    09:00 +31°C° 0 mm 2 mps 659 mmHg 44%
    10:00 +35°C° 0 mm 2 mps 660 mmHg 37%
    11:00 +38°C° 0 mm 2 mps 660 mmHg 29%
    12:00 +36°C° 0.1 mm 2 mps 659 mmHg 31%
    13:00 +35°C° 0.1 mm 2 mps 657 mmHg 32%
    14:00 +34°C° 0.1 mm 2 mps 656 mmHg 34%
    15:00 +31°C° 0.1 mm 2 mps 656 mmHg 38%
    16:00 +30°C° 0.1 mm 3 mps 655 mmHg 42%
    17:00 +29°C° 0.1 mm 3 mps 654 mmHg 45%
    18:00 +27°C° 0 mm 3 mps 655 mmHg 49%
    19:00 +26°C° 0 mm 2 mps 655 mmHg 53%
    20:00 +24°C° 0 mm 2 mps 655 mmHg 56%
    21:00 +24°C° 0 mm 2 mps 655 mmHg 58%
    22:00 +23°C° 0 mm 2 mps 656 mmHg 60%
    23:00 +23°C° 0 mm 2 mps 656 mmHg 61%

    29 Octubre, Martes

    Tiempo Temperatura Precipitaciones Viento Presión Humedad
    00:00 +21°C° 0 mm 2 mps 656 mmHg 67%
    01:00 +21°C° 0 mm 2 mps 655 mmHg 72%
    02:00 +21°C° 0 mm 1 mps 655 mmHg 78%
    03:00 +21°C° 0 mm 1 mps 655 mmHg 81%
    04:00 +21°C° 0 mm 1 mps 656 mmHg 84%
    05:00 +20°C° 0 mm 1 mps 656 mmHg 87%
    06:00 +23°C° 0 mm 1 mps 657 mmHg 78%
    07:00 +25°C° 0 mm 1 mps 658 mmHg 70%
    08:00 +27°C° 0 mm 1 mps 659 mmHg 61%
    09:00 +30°C° 0 mm 1 mps 659 mmHg 52%
    10:00 +33°C° 0 mm 1 mps 660 mmHg 42%
    11:00 +37°C° 0 mm 2 mps 660 mmHg 33%
    12:00 +36°C° 0 mm 1 mps 659 mmHg 30%
    13:00 +36°C° 0 mm 1 mps 658 mmHg 27%
    14:00 +37°C° 0 mm 1 mps 657 mmHg 24%
    15:00 +36°C° 0 mm 1 mps 657 mmHg 26%
    16:00 +34°C° 0 mm 1 mps 656 mmHg 28%
    17:00 +33°C° 0 mm 1 mps 656 mmHg 30%
    18:00 +31°C° 0 mm 2 mps 656 mmHg 37%
    19:00 +29°C° 0 mm 3 mps 656 mmHg 44%
    20:00 +27°C° 0 mm 3 mps 656 mmHg 51%
    21:00 +26°C° 0 mm 3 mps 656 mmHg 58%
    22:00 +25°C° 0 mm 3 mps 657 mmHg 64%
    23:00 +24°C° 0 mm 3 mps 657 mmHg 71%
    Mostrar más